Location: Bryzozowice
(50.3667°N, 18.9667°E)
Time: 19:51:28
(UTC+00:00)

ERBS - Pass Details

Date: 24 January 2020
Orbit: 412 x 428 km, 57.0° (Epoch: 16 February)

Event Time Altitude Azimuth Distance (km) Brightness Sun altitude
Rises 16:17:52 0° 223° (SW) 2,348 7.3 -8.8°
Reaches altitude 10° 16:19:58 10° 218° (SW) 1,486 6.0 -9.1°
Maximum altitude 16:23:12 52° 142° (SE) 521 2.6 -9.6°
Enters shadow 16:25:46 15° 67° (ENE) 1,220 3.9 -10.0°
